星链-35978(STARLINK-35978)

导读 | 豆包AI

STARLINK-35978是美国SpaceX公司星链星座的成员卫星,于2025年11月22日发射升空,运行于近550公里的低地球轨道。作为第二代星链卫星,它搭载相控阵天线与空间激光链路,具备高带宽通信能力,可配合整个星座为全球偏远地区提供低时延、高速的宽带互联网接入服务,是星链网络持续扩张全球覆盖的重要组成部分。

基本信息
目录编号:
66601
目录名称:
STARLINK-35978
国际标识:
2025-270P
轨道中心:
EARTH
卫星名称:
星链-35978
卫星全名:
星链-35978(STARLINK-35978)
卫星状态:
在轨 (已飞行158 天)
发射日期:
2025-11-22 UTC
国别 :
美国 (US)
星等 :
--
轨道信息
数据来源 国际轨道数据 AOE轨道数据
星历时间 2026-04-29T02:09:26+0800
8小时前
查看轨道信息
2026-04-28T04:00:00+0800
1天前
查看轨道信息
半长轴 6861.185km 6861.177km
偏心率 0.0000387 0.000001
轨道倾角 42.999° 43.002°
近地点辐角 268.158° 162.752°
升交点赤经 133.374° 138.589°
平近点角 91.923° 154.396°
近地点 482.782km 483.033km
远地点 483.314km 483.047km
周期 94.267分钟 94.267分钟
每日圈数 15.275805 15.275833
详细信息
固有亮度:
5
最大亮度:
2.5
卫星平台:
Starlink V1.0
覆盖范围:
全球
运营商:
太空探索技术公司
运营商所在国:
美国
制造商(研发单位):
太空探索技术公司
制造商所在国:
美国
使用方式:
暂无
卫星简介
Starlink 计划是 SpaceX 推出的全球卫星互联网项目,通过发射低轨道卫星,为全球尤其是偏远地区提供高速、低延迟的互联网服务。自 2019 年起,Starlink 已部署数千颗卫星,旨在缩小全球数字鸿沟,推动互联网普及。该项目还为军事、航空等行业提供通信支持,带来广泛经济效益。
2D轨道图
3D轨道图
轨道高度分析图
轨道倾角分析图
轨道综合分析图
查看轨道综合分析图